星链-34683 (STARLINK-34683)

导读

STARLINK-34683是美国太空探索技术公司(SpaceX)发射的星链(Starlink)系列低轨互联网通信卫星,于2025年7月19日发射升空。该卫星属于Starlink星座组网卫星,星链星座旨在为全球提供低时延、高速的卫星互联网覆盖服务,STARLINK-34683加入后,进一步扩展了星座的全球覆盖能力与通信服务容量。

Basic Information
目录编号:
64857
目录名称:
STARLINK-34683
国际标识:
2025-152R
轨道中心:
EARTH
卫星名称:
星链-34683
卫星全名:
星链-34683 (STARLINK-34683)
卫星状态:
在轨 (已飞行412 天)
发射日期:
2025-07-19 UTC
国别 :
美国 (US)
星等 :
--
Orbit Information
数据来源 国际轨道数据
星历时间: 2026-09-04T08:44:11+0800
16小时前
查看轨道信息
半长轴: 6843.685km
偏心率: 0.0001755
轨道倾角: 97.285°
近地点辐角 94.242°
升交点赤经 97.886°
平近点角 265.902°
近地点: 464.346km
远地点: 466.75km
周期: 93.906分钟
每日圈数: 15.334436
Detailed Information
固有亮度:
5
最大亮度:
2.5
卫星平台:
Starlink V1.0
覆盖范围:
全球
运营商:
太空探索技术公司
运营商所在国:
美国
制造商(研发单位):
太空探索技术公司
制造商所在国:
美国
使用方式:
暂无
Satellite Introduction
Starlink 计划是 SpaceX 推出的全球卫星互联网项目,通过发射低轨道卫星,为全球尤其是偏远地区提供高速、低延迟的互联网服务。自 2019 年起,Starlink 已部署数千颗卫星,旨在缩小全球数字鸿沟,推动互联网普及。该项目还为军事、航空等行业提供通信支持,带来广泛经济效益。
2D Orbit Map
3D Orbit Map
Orbit Altitude Analysis Chart
Orbit Inclination Analysis Chart
Orbit Comprehensive Analysis Chart
View Comprehensive Chart
Conjunction Data List
Event ID Objects TCA Miss Dist (km) Collision Risk Probability Collision Risk Index (CRI) Action
CDM_260904-161104-838506-485721
2026-09-04T
16:11:24+0000
2.889 km
极远距离
1.345242E-6 低风险 0.38
CDM_260906-031906-186906-485721
OBJECT A (61869)
2026-09-06T
03:19:40+0000
2.999 km
极远距离
1.312049E-6 低风险 0.37
CDM_260906-234506-278406-485721
2026-09-06T
23:45:31+0000
2.915 km
极远距离
1.217561E-6 低风险 0.37
CDM_260906-144905-340306-485721
2026-09-06T
14:49:14+0000
2.814 km
极远距离
1.174203E-6 低风险 0.36
CDM_260905-021206-074606-485721
OBJECT B (60746)
2026-09-05T
02:12:29+0000
2.643 km
极远距离
1.155686E-6 低风险 0.36